Weather history for 0328

Weather History For Prescott AZ

This page updates 5 minutes after midnight. GMT -7

Station: KPRC0 Rows: 26

Return to today's weather
Year Date Temp (°F) Tmin (°F) Tmax (°F) RH% Prcp Snow Wind Gust Pres Sun Cloud
2000 2000-03-28 49.1 44.1 57.9 77 9.7 29.68 8
2001 2001-03-28 54.0 37.9 70.0 34 15.4 29.83 2
2002 2002-03-28 50.7 33.8 62.6 32 8.2 29.88
2003 2003-03-28 41.0 28.4 51.8 25 18.4 30.04 0
2004 2004-03-28 52.5 33.8 69.8 24 10.9 30.08 0
2005 2005-03-28 48.6 41.0 57.9 46 1.5 21.9 29.72 1
2006 2006-03-28 50.4 46.9 57.0 66 16.6 29.87 7
2007 2007-03-28 38.3 30.0 46.9 42 0.0 16.1 29.89 4
2008 2008-03-28 55.4 41.0 68.0 32 0.0 12.3 0.00 0
2009 2009-03-28 48.0 32.0 64.9 22 0.0 7.3 29.92 0
2010 2010-03-28 45.9 25.0 66.0 28 0.0 5.9 30.22 0
2011 2011-03-28 51.8 36.0 64.0 44 0.0 10.8 29.83 0
2012 2012-03-28 53.4 36.0 70.0 34 0.0 10.6 29.93 0
2013 2013-03-28 54.3 37.9 66.9 30 0.0 12.7 29.97 0
2014 2014-03-28 48.6 30.9 63.0 36 0.0 8.6 30.04 0
2015 2015-03-28 59.0 39.0 78.1 26 0.0 11.2 30.06 0
2016 2016-03-28 54.1 45.0 60.1 35 0.0 24.8 29.69 1
2017 2017-03-28 47.7 35.1 62.1 54 0.0 18.8 29.83 2
2018 2018-03-28 50.2 30.0 66.9 30 0.0 13.2 29.97 0
2019 2019-03-28 54.1 37.9 69.1 32 0.0 16.1 29.99 0
2020 2020-03-28 40.1 26.1 52.0 43 0.0 7.0 30.07 0
2021 2021-03-28 49.5 30.9 68.0 42 0.0 8.6 30.22 0
2022 2022-03-28 53.4 46.0 63.0 32 20.1 29.76
2023 2023-03-28 45.5 28.0 64.9 30 0.0 8.9 30.03 0
2024 2024-03-28 51.1 35.1 64.0 41 0.0 12.3 29.94 2
2025 2025-03-28 56.7 45.0 63.0 29 0.0 15.1 29.75 3
Average Low 35.9
Average High 63.4

Daily High / Low by Year (03/28)

Barometric Pressure by Year (03/28)

Weather data provided by Meteostat